RYR76SW EGSS-EDDK

Flight info

Callsign RYR76SW
Flight time 0h 57m
Altitude 31000
Route CLN M84 KONAN UL607 SPI T857 DENOV T861 ERUKI T856 DEPOK
Aircraft B738/M-SDE3FGILRWY/SB1

Departure

Time 2026-04-22 13:04
Airport London Stansted Airport (EGSS)

Arrival

Time 2026-04-22 14:01
Airport Cologne Bonn Airport (EDDK)
Time Latitude Longitude Altitude Speed Heading
2026-04-22 12:30 51.89189 0.26047 352 ft 0 kts 43°
2026-04-22 12:53 51.89178 0.26030 347 ft 4 kts 43°
2026-04-22 12:53 51.89158 0.26000 355 ft 4 kts 43°
2026-04-22 12:53 51.89139 0.25970 347 ft 4 kts 43°
2026-04-22 12:53 51.89132 0.25959 355 ft 0 kts 43°
2026-04-22 12:56 51.89136 0.25962 347 ft 2 kts 19°
2026-04-22 12:56 51.89151 0.25945 352 ft 5 kts 314°
2026-04-22 12:56 51.89197 0.25865 348 ft 14 kts 312°
2026-04-22 12:57 51.89283 0.25717 344 ft 21 kts 313°
2026-04-22 12:57 51.89359 0.25577 347 ft 8 kts 282°
2026-04-22 12:57 51.89327 0.25503 343 ft 8 kts 217°
2026-04-22 12:57 51.89285 0.25443 350 ft 8 kts 226°
2026-04-22 12:58 51.89245 0.25383 347 ft 8 kts 223°
2026-04-22 12:58 51.89206 0.25323 353 ft 8 kts 223°
2026-04-22 12:58 51.89158 0.25253 345 ft 11 kts 221°
2026-04-22 12:58 51.89088 0.25154 342 ft 15 kts 225°
2026-04-22 12:59 51.89002 0.25014 345 ft 20 kts 224°
2026-04-22 12:59 51.88892 0.24854 348 ft 23 kts 221°
2026-04-22 12:59 51.88768 0.24672 343 ft 25 kts 226°
2026-04-22 12:59 51.88634 0.24465 346 ft 28 kts 221°
2026-04-22 13:00 51.88489 0.24246 341 ft 28 kts 223°
2026-04-22 13:00 51.88382 0.24079 337 ft 27 kts 222°
2026-04-22 13:00 51.88252 0.23879 336 ft 25 kts 222°
2026-04-22 13:00 51.88144 0.23728 333 ft 14 kts 225°
2026-04-22 13:01 51.88073 0.23622 337 ft 14 kts 221°
2026-04-22 13:01 51.87997 0.23511 336 ft 16 kts 224°
2026-04-22 13:01 51.87916 0.23383 336 ft 17 kts 228°
2026-04-22 13:01 51.87824 0.23251 335 ft 18 kts 219°
2026-04-22 13:02 51.87738 0.23107 334 ft 16 kts 242°
2026-04-22 13:02 51.87768 0.22968 336 ft 13 kts 312°
2026-04-22 13:02 51.87831 0.22863 335 ft 13 kts 313°
2026-04-22 13:02 51.87889 0.22757 332 ft 12 kts 314°
2026-04-22 13:03 51.87936 0.22654 333 ft 6 kts 320°
2026-04-22 13:03 51.87943 0.22654 334 ft 1 kts
2026-04-22 13:03 51.87961 0.22670 333 ft 6 kts 37°
2026-04-22 13:03 51.88067 0.22829 333 ft 50 kts 43°
2026-04-22 13:04 51.88491 0.23464 335 ft 113 kts 43°
2026-04-22 13:04 51.89204 0.24501 398 ft 156 kts 47°
2026-04-22 13:04 51.90037 0.25723 965 ft 160 kts 48°
2026-04-22 13:04 51.90771 0.26842 2077 ft 136 kts 50°
2026-04-22 13:05 51.91197 0.28291 2379 ft 158 kts 89°
2026-04-22 13:05 51.90804 0.29959 3004 ft 170 kts 125°
2026-04-22 13:05 51.90131 0.31571 3596 ft 173 kts 104°
2026-04-22 13:05 51.89971 0.33506 4157 ft 182 kts 95°
2026-04-22 13:06 51.89825 0.35642 4457 ft 198 kts 101°
2026-04-22 13:06 51.89431 0.37888 4586 ft 226 kts 108°
2026-04-22 13:06 51.88845 0.40362 4546 ft 240 kts 110°
2026-04-22 13:06 51.88206 0.42884 4673 ft 244 kts 111°
2026-04-22 13:07 51.87527 0.45394 5449 ft 242 kts 113°
2026-04-22 13:07 51.86874 0.47911 6242 ft 243 kts 111°
2026-04-22 13:07 51.86242 0.50472 6972 ft 247 kts 111°
2026-04-22 13:07 51.85605 0.53073 7656 ft 251 kts 111°
2026-04-22 13:08 51.84953 0.55724 8359 ft 256 kts 112°
2026-04-22 13:08 51.84290 0.58413 9140 ft 260 kts 112°
2026-04-22 13:08 51.83615 0.61136 9914 ft 264 kts 112°
2026-04-22 13:08 51.82922 0.63923 10610 ft 270 kts 112°
2026-04-22 13:09 51.82195 0.66841 10887 ft 292 kts 112°
2026-04-22 13:09 51.81421 0.69943 11433 ft 301 kts 112°
2026-04-22 13:09 51.80625 0.73122 12080 ft 309 kts 112°
2026-04-22 13:09 51.79824 0.76321 12969 ft 309 kts 112°
2026-04-22 13:10 51.79006 0.79582 13643 ft 316 kts 112°
2026-04-22 13:10 51.78181 0.82861 14463 ft 319 kts 112°
2026-04-22 13:10 51.77347 0.86173 15333 ft 316 kts 112°
2026-04-22 13:10 51.76510 0.89493 16027 ft 324 kts 112°
2026-04-22 13:11 51.75656 0.92874 16693 ft 330 kts 112°
2026-04-22 13:11 51.74780 0.96335 17444 ft 332 kts 112°
2026-04-22 13:11 51.73905 0.99792 18249 ft 335 kts 112°
2026-04-22 13:11 51.73031 1.03236 18921 ft 338 kts 112°
2026-04-22 13:12 51.72118 1.06826 19501 ft 344 kts 112°
2026-04-22 13:12 51.71211 1.10391 19981 ft 353 kts 112°
2026-04-22 13:12 51.70265 1.14103 20750 ft 351 kts 112°
2026-04-22 13:12 51.69331 1.17763 21402 ft 355 kts 111°
2026-04-22 13:13 51.68391 1.21443 21775 ft 366 kts 112°
2026-04-22 13:13 51.67395 1.25328 22207 ft 374 kts 111°
2026-04-22 13:13 51.66401 1.29176 22720 ft 380 kts 114°
2026-04-22 13:13 51.64951 1.32740 23264 ft 386 kts 134°
2026-04-22 13:14 51.62762 1.35277 23801 ft 393 kts 153°
2026-04-22 13:14 51.60139 1.36583 24215 ft 401 kts 173°
2026-04-22 13:14 51.57341 1.36822 24621 ft 406 kts 178°
2026-04-22 13:14 51.54490 1.36902 24915 ft 415 kts 179°
2026-04-22 13:15 51.51583 1.37009 25253 ft 422 kts 179°
2026-04-22 13:15 51.48641 1.37166 25716 ft 424 kts 179°
2026-04-22 13:15 51.45689 1.37657 26053 ft 431 kts 164°
2026-04-22 13:15 51.42966 1.39629 26557 ft 431 kts 146°
2026-04-22 13:16 51.40723 1.42771 27045 ft 429 kts 128°
2026-04-22 13:16 51.38899 1.46511 27842 ft 421 kts 124°
2026-04-22 13:16 51.37154 1.50229 28572 ft 418 kts 124°
2026-04-22 13:16 51.35400 1.53982 28860 ft 425 kts 124°
2026-04-22 13:17 51.33609 1.57783 29184 ft 430 kts 124°
2026-04-22 13:17 51.31795 1.61589 29679 ft 430 kts 124°
2026-04-22 13:17 51.29961 1.65402 30024 ft 436 kts 124°
2026-04-22 13:17 51.28097 1.69255 30413 ft 439 kts 124°
2026-04-22 13:18 51.26228 1.73105 30839 ft 439 kts 125°
2026-04-22 13:18 51.24357 1.76949 31298 ft 438 kts 125°
2026-04-22 13:18 51.22481 1.80803 31312 ft 442 kts 125°
2026-04-22 13:19 51.18736 1.88481 31322 ft 435 kts 125°
2026-04-22 13:19 51.15084 1.96079 31322 ft 426 kts 120°
2026-04-22 13:19 51.13742 2.00214 31324 ft 417 kts 108°
2026-04-22 13:20 51.12888 2.04584 31329 ft 412 kts 98°
2026-04-22 13:20 51.12287 2.13660 31336 ft 416 kts 90°
2026-04-22 13:21 51.11851 2.22834 31313 ft 415 kts 90°
2026-04-22 13:21 51.11458 2.30421 31312 ft 413 kts 91°
2026-04-22 13:22 51.10958 2.39522 31339 ft 412 kts 92°
2026-04-22 13:22 51.10450 2.48571 31322 ft 410 kts 92°
2026-04-22 13:23 51.09940 2.57569 31316 ft 407 kts 92°
2026-04-22 13:23 51.09328 2.66509 31310 ft 408 kts 99°
2026-04-22 13:24 51.07805 2.75214 31314 ft 409 kts 104°
2026-04-22 13:24 51.06159 2.83885 31361 ft 410 kts 104°
2026-04-22 13:25 51.04540 2.92576 31347 ft 410 kts 103°
2026-04-22 13:25 51.02940 3.01274 31330 ft 410 kts 103°
2026-04-22 13:26 51.01346 3.09947 31324 ft 409 kts 103°
2026-04-22 13:26 50.99748 3.18598 31322 ft 408 kts 103°
2026-04-22 13:27 50.98148 3.27223 31316 ft 407 kts 103°
2026-04-22 13:27 50.96542 3.35839 31321 ft 407 kts 103°
2026-04-22 13:28 50.94932 3.44437 31306 ft 407 kts 103°
2026-04-22 13:28 50.93317 3.53025 31312 ft 406 kts 103°
2026-04-22 13:29 50.91700 3.61588 31309 ft 406 kts 104°
2026-04-22 13:29 50.90064 3.70142 31314 ft 406 kts 104°
2026-04-22 13:30 50.88408 3.78683 31327 ft 406 kts 104°
2026-04-22 13:30 50.86745 3.87231 31322 ft 406 kts 104°
2026-04-22 13:31 50.85079 3.95771 31315 ft 406 kts 104°
2026-04-22 13:31 50.83409 4.04296 31317 ft 406 kts 104°
2026-04-22 13:32 50.81737 4.12795 31311 ft 401 kts 104°
2026-04-22 13:32 50.80910 4.16980 31061 ft 396 kts 104°
2026-04-22 13:32 50.80094 4.21100 30819 ft 389 kts 104°
2026-04-22 13:32 50.79287 4.25172 30456 ft 387 kts 104°
2026-04-22 13:33 50.78484 4.29216 30067 ft 384 kts 104°
2026-04-22 13:33 50.77686 4.33227 29703 ft 380 kts 104°
2026-04-22 13:33 50.76896 4.37186 29333 ft 376 kts 104°
2026-04-22 13:33 50.76115 4.41098 28981 ft 372 kts 104°
2026-04-22 13:34 50.75338 4.44978 28617 ft 368 kts 104°
2026-04-22 13:34 50.74571 4.48808 28260 ft 364 kts 104°
2026-04-22 13:34 50.73809 4.52604 27925 ft 360 kts 104°
2026-04-22 13:34 50.73053 4.56359 27563 ft 358 kts 104°
2026-04-22 13:35 50.72302 4.60082 27237 ft 354 kts 104°
2026-04-22 13:35 50.71574 4.63768 26965 ft 350 kts 103°
2026-04-22 13:35 50.70867 4.67418 26721 ft 346 kts 103°
2026-04-22 13:35 50.70169 4.71035 26469 ft 344 kts 104°
2026-04-22 13:36 50.69476 4.74614 26205 ft 339 kts 103°
2026-04-22 13:36 50.68787 4.78164 25871 ft 337 kts 104°
2026-04-22 13:36 50.68102 4.81682 25537 ft 335 kts 104°
2026-04-22 13:36 50.67419 4.85179 25208 ft 333 kts 104°
2026-04-22 13:37 50.66739 4.88648 24875 ft 330 kts 104°
2026-04-22 13:37 50.66061 4.92093 24574 ft 327 kts 104°
2026-04-22 13:37 50.65380 4.95462 24422 ft 320 kts 105°
2026-04-22 13:37 50.64701 4.98777 24148 ft 317 kts 105°
2026-04-22 13:38 50.64025 5.02069 23820 ft 315 kts 105°
2026-04-22 13:38 50.62685 5.08590 23144 ft 310 kts 105°
2026-04-22 13:38 50.62024 5.11806 22806 ft 307 kts 105°
2026-04-22 13:39 50.61368 5.14992 22505 ft 305 kts 104°
2026-04-22 13:39 50.60717 5.18152 22187 ft 302 kts 104°
2026-04-22 13:39 50.60070 5.21285 21868 ft 300 kts 104°
2026-04-22 13:39 50.59428 5.24394 21544 ft 297 kts 104°
2026-04-22 13:40 50.58799 5.27434 21250 ft 295 kts 104°
2026-04-22 13:40 50.58156 5.30539 20905 ft 294 kts 104°
2026-04-22 13:40 50.57531 5.33553 20577 ft 293 kts 104°
2026-04-22 13:40 50.56900 5.36591 20257 ft 292 kts 105°
2026-04-22 13:41 50.56271 5.39611 19942 ft 290 kts 105°
2026-04-22 13:41 50.55645 5.42615 19646 ft 288 kts 105°
2026-04-22 13:41 50.55022 5.45601 19349 ft 286 kts 105°
2026-04-22 13:41 50.54402 5.48568 19050 ft 285 kts 105°
2026-04-22 13:42 50.53787 5.51512 18764 ft 283 kts 105°
2026-04-22 13:42 50.53172 5.54443 18451 ft 281 kts 105°
2026-04-22 13:42 50.52560 5.57354 18139 ft 279 kts 105°
2026-04-22 13:42 50.51975 5.60247 17835 ft 276 kts 99°
2026-04-22 13:43 50.51849 5.63198 17602 ft 268 kts 84°
2026-04-22 13:43 50.52207 5.66034 17384 ft 265 kts 72°
2026-04-22 13:43 50.52779 5.68798 17094 ft 267 kts 71°
2026-04-22 13:43 50.53389 5.71599 16806 ft 276 kts 71°
2026-04-22 13:44 50.54021 5.74502 16496 ft 284 kts 71°
2026-04-22 13:44 50.54656 5.77445 16177 ft 284 kts 71°
2026-04-22 13:44 50.55284 5.80378 15880 ft 282 kts 71°
2026-04-22 13:44 50.55903 5.83293 15561 ft 280 kts 71°
2026-04-22 13:45 50.56516 5.86193 15265 ft 278 kts 71°
2026-04-22 13:45 50.57123 5.89076 14959 ft 277 kts 72°
2026-04-22 13:45 50.57726 5.91946 14660 ft 276 kts 72°
2026-04-22 13:45 50.58324 5.94803 14356 ft 274 kts 72°
2026-04-22 13:46 50.58919 5.97652 14057 ft 273 kts 72°
2026-04-22 13:46 50.59510 6.00488 13720 ft 272 kts 72°
2026-04-22 13:46 50.60098 6.03311 13408 ft 271 kts 72°
2026-04-22 13:46 50.60681 6.06111 13107 ft 269 kts 72°
2026-04-22 13:47 50.61259 6.08894 12811 ft 266 kts 72°
2026-04-22 13:47 50.61832 6.11654 12510 ft 264 kts 72°
2026-04-22 13:47 50.62400 6.14398 12228 ft 262 kts 72°
2026-04-22 13:47 50.62962 6.17118 11943 ft 261 kts 72°
2026-04-22 13:48 50.63506 6.19792 11659 ft 259 kts 75°
2026-04-22 13:48 50.63661 6.22591 11340 ft 258 kts 94°
2026-04-22 13:48 50.63479 6.25439 11043 ft 257 kts 95°
2026-04-22 13:48 50.63312 6.28238 10749 ft 257 kts 94°
2026-04-22 13:49 50.63157 6.31000 10485 ft 255 kts 94°
2026-04-22 13:49 50.63004 6.33772 10373 ft 247 kts 94°
2026-04-22 13:49 50.62862 6.36451 10126 ft 246 kts 94°
2026-04-22 13:49 50.62723 6.39127 9851 ft 245 kts 94°
2026-04-22 13:50 50.62586 6.41798 9564 ft 244 kts 94°
2026-04-22 13:50 50.62448 6.44451 9316 ft 242 kts 94°
2026-04-22 13:50 50.62311 6.47079 9071 ft 240 kts 94°
2026-04-22 13:50 50.62176 6.49653 8810 ft 238 kts 95°
2026-04-22 13:51 50.62039 6.52249 8542 ft 237 kts 95°
2026-04-22 13:51 50.61902 6.54825 8311 ft 236 kts 95°
2026-04-22 13:51 50.61765 6.57403 8046 ft 237 kts 95°
2026-04-22 13:51 50.61628 6.59983 7788 ft 236 kts 95°
2026-04-22 13:52 50.61492 6.62554 7530 ft 236 kts 95°
2026-04-22 13:52 50.61354 6.65120 7274 ft 235 kts 95°
2026-04-22 13:52 50.61214 6.67688 7001 ft 235 kts 95°
2026-04-22 13:52 50.61075 6.70249 6742 ft 235 kts 95°
2026-04-22 13:53 50.60963 6.72808 6467 ft 235 kts 89°
2026-04-22 13:53 50.61436 6.75268 6157 ft 240 kts 60°
2026-04-22 13:53 50.62566 6.77215 5839 ft 245 kts 40°
2026-04-22 13:53 50.64015 6.78697 5469 ft 250 kts 34°
2026-04-22 13:54 50.65470 6.80145 5319 ft 241 kts 35°
2026-04-22 13:54 50.66850 6.81537 5148 ft 230 kts 36°
2026-04-22 13:54 50.68155 6.82889 4933 ft 220 kts 36°
2026-04-22 13:54 50.69413 6.84186 4705 ft 213 kts 35°
2026-04-22 13:55 50.70638 6.85446 4449 ft 208 kts 29°
2026-04-22 13:55 50.72019 6.85838 4297 ft 206 kts 351°
2026-04-22 13:55 50.73347 6.85110 4150 ft 200 kts 341°
2026-04-22 13:55 50.74611 6.84299 3999 ft 193 kts 341°
2026-04-22 13:56 50.75830 6.83549 3867 ft 182 kts 351°
2026-04-22 13:56 50.76993 6.83845 3671 ft 168 kts 38°
2026-04-22 13:56 50.77691 6.85234 3608 ft 160 kts 62°
2026-04-22 13:56 50.78185 6.86825 3485 ft 162 kts 64°
2026-04-22 13:57 50.78680 6.88452 3327 ft 166 kts 64°
2026-04-22 13:57 50.79188 6.90075 3194 ft 164 kts 64°
2026-04-22 13:57 50.79689 6.91691 2987 ft 163 kts 64°
2026-04-22 13:57 50.80190 6.93301 2776 ft 163 kts 64°
2026-04-22 13:58 50.80681 6.94912 2555 ft 164 kts 64°
2026-04-22 13:58 50.81185 6.96545 2382 ft 164 kts 64°
2026-04-22 13:58 50.81687 6.98160 2085 ft 164 kts 64°
2026-04-22 13:58 50.82182 6.99783 1862 ft 162 kts 64°
2026-04-22 13:59 50.82666 7.01345 1659 ft 156 kts 63°
2026-04-22 13:59 50.83133 7.02863 1471 ft 150 kts 64°
2026-04-22 13:59 50.83576 7.04324 1343 ft 143 kts 64°
2026-04-22 13:59 50.84001 7.05718 1157 ft 139 kts 64°
2026-04-22 14:00 50.84407 7.07103 1011 ft 139 kts 64°
2026-04-22 14:00 50.84820 7.08481 832 ft 139 kts 63°
2026-04-22 14:00 50.85250 7.09865 675 ft 142 kts 63°
2026-04-22 14:00 50.85683 7.11267 471 ft 145 kts 63°
2026-04-22 14:01 50.86109 7.12701 257 ft 142 kts 63°
2026-04-22 14:01 50.86484 7.13929 252 ft 95 kts 64°
2026-04-22 14:01 50.86675 7.14563 258 ft 32 kts 64°
2026-04-22 14:01 50.86748 7.14799 256 ft 27 kts 65°
2026-04-22 14:02 50.86840 7.15105 260 ft 33 kts 63°
2026-04-22 14:02 50.86936 7.15421 275 ft 23 kts 63°
2026-04-22 14:02 50.87024 7.15473 280 ft 19 kts 329°
2026-04-22 14:02 50.87104 7.15360 275 ft 16 kts 264°
2026-04-22 14:03 50.87033 7.15118 264 ft 31 kts 244°
2026-04-22 14:03 50.86931 7.14780 255 ft 35 kts 245°
2026-04-22 14:03 50.86873 7.14456 256 ft 27 kts 278°
2026-04-22 14:03 50.86903 7.14184 252 ft 21 kts 278°
2026-04-22 14:04 50.86968 7.14013 248 ft 18 kts 317°
2026-04-22 14:04 50.87060 7.13881 245 ft 19 kts 317°
2026-04-22 14:04 50.87174 7.13714 241 ft 25 kts 318°
2026-04-22 14:04 50.87302 7.13532 237 ft 21 kts 316°
2026-04-22 14:05 50.87427 7.13348 234 ft 28 kts 317°
2026-04-22 14:05 50.87580 7.13124 231 ft 32 kts 318°
2026-04-22 14:05 50.87778 7.12693 229 ft 21 kts 256°
2026-04-22 14:06 50.87707 7.12519 230 ft 17 kts 200°
2026-04-22 14:06 50.87596 7.12462 231 ft 16 kts 197°
2026-04-22 14:06 50.87540 7.12382 231 ft 11 kts 265°
2026-04-22 14:06 50.87569 7.12277 229 ft 9 kts 298°
2026-04-22 14:07 50.87559 7.12220 229 ft 6 kts 195°
2026-04-22 14:07 50.87532 7.12201 230 ft 6 kts 207°
2026-04-22 14:07 50.87521 7.12191 230 ft 0 kts 207°